Other Public Products
Issued by NWS Charleston, SC

Current Version | Previous Version | Graphics & Text | Print | Product List | Glossary Off
Versions: 1 2 3 4 5 6 7 8 9 10 11 12 13 14 15 16 17 18 19 20 21 22 23 24 25 26 27 28 29 30 31 32 33 34 35 36 37 38 39 40 41 42 43 44 45 46 47 48 49 50
593 FPUS82 KCHS 210927 OPUCHS TEST...KCHS/KSAV Gateway Observations...TEST National Weather Service Charleston SC 400 AM EST WED FEB 21 2018 NOTE: "fair" indicates few or no clouds below 12,000 feet with no significant weather and/or obstructions to visibility. SCZ050-WAZ558-NCZ071-TXZ119-213-PAZ071-DCZ001-FLZ074-172-MI076- NYZ176-178-MAZ016-IL014-TNZ027-NJZ106-GAZ044-MD014-211000- ...Gateway Observations for Charleston International... CITY SKY/WX TMP DP RH WIND PRES REMARKS Chas Airport FAIR 66 65 96 S9 30.41S Seattle CLEAR 28 23 81 N7 30.30R WCI 21 Charlotte CLOUDY 66 65 96 S10 30.42S Dallas DFW RAIN 38 35 89 N20 30.18R FOG WCI 28 Dallas Love HVY RAIN 36 34 92 N14 30.19F FOG WCI 27 Philladelphia FOG 53 52 96 W5 30.32S VSB 1 Wash National FAIR 59 58 96 S10 30.33S Baltimore FAIR 60 59 96 S7 30.30F Miami FAIR 75 69 81 E15 30.29F Detroit LGT RAIN 51 49 92 NW16G24 30.10R Newark CLOUDY 60 58 92 SW9 30.30S Laguardia FOG 50 48 93 S8 30.30S VSB<1/4 J F K FOG 45 45 100 S14 30.32S VSB 1/8 Boston Logan FAIR 50 49 96 SW9 30.24F Ft. Lauderdale FAIR 76 71 85 E18 30.29F Chicago O`Hare CLOUDY 31 25 78 NW12 30.27R WCI 22 Chicago Midway CLOUDY 33 30 88 N12 30.26R FOG WCI 24 Houston Bush CLOUDY 72 71 97 CALM 30.05F THUNDER Houston Hobby TSTM 71 71 100 SE3 30.05F Nashville MOCLDY 71 63 75 S16 30.20S Atlanta LGT RAIN 66 65 96 S7 30.37R $$ GAZ044-118-TXZ119-213-NCZ071-DCZ001-MDZ014-506-PAZ021-071-NJZ106- NYZ176-178-MAZ106-OHZ011-021-055-MIZ076-KYZ091-ILZ014-INZ047- MNZ060-ONZ431-211000- ...Gateway Observations for Savannah International... CITY SKY/WX TMP DP RH WIND PRES REMARKS Savannah Arpt FAIR 67 66 97 SE7 30.40S Atlanta LGT RAIN 66 65 96 S7 30.37R Charlotte CLOUDY 66 65 96 S10 30.42S Dallas DFW RAIN 38 35 89 N20 30.18R FOG WCI 28 Houston Bush CLOUDY 72 71 97 CALM 30.05F THUNDER Wash National FAIR 59 58 96 S10 30.33S Wash Dulles FAIR 60 58 92 S12 30.31S Baltimore FAIR 60 59 96 S7 30.30F Philadelphia FOG 53 52 96 W5 30.32S VSB 1 Newark CLOUDY 60 58 92 SW9 30.30S Laguardia FOG 50 48 93 S8 30.30S VSB<1/4 J F K FOG 45 45 100 S14 30.32S VSB 1/8 Boston FAIR 50 49 96 SW9 30.24F Pittsburg CLOUDY 63 50 62 S6 30.17F Akron CLOUDY 68 52 56 SW18G31 30.11F Cleveland MOCLDY 68 54 60 S17G24 30.07F Cincinnati FAIR 66 60 81 S17 30.09F Columbus FAIR 63 55 74 S12 30.11F Detroit LGT RAIN 51 49 92 NW16G24 30.10R Chicago O`Hare CLOUDY 31 25 78 NW12 30.27R WCI 22 Minneapolis FAIR 6 1 80 CALM 30.45R Indianapolis LGT RAIN 45 44 97 NW14 30.18R Toronto Canada NOT AVBL $$

USA.gov is the U.S. government's official web portal to all federal, state and local government web resources and services.